Location: Unspecified
(48.5539°N, 71.6350°W)
Time: 09:56:49
(UTC-05:00)

ISS - Pass Details

Date: 26 January 2019
Orbit: 403 x 411 km, 51.6° (Epoch: 19 February)

Event Time Altitude Azimuth Distance (km) Brightness Sun altitude
Rises 16:13:38 0° 188° (S) 2,318 0.7 2.3°
Reaches altitude 10° 16:17:06 10° 149° (SSE) 1,467 -1.0 1.8°
Maximum altitude 16:17:57 11° 134° (SE) 1,423 -1.2 1.6°
Drops below altitude 10° 16:18:48 10° 119° (ESE) 1,471 -1.3 1.5°
Sets 16:22:18 0° 80° (E) 2,341 -0.6 1.0°
